Location: Six Mile Lake
(44.9000°N, 79.7170°W)
Time: 04:19:53
(UTC-04:00)

UKube-1 - Pass Details

Date: 08 July 2022
Orbit: 608 x 615 km, 98.4° (Epoch: 09 August)

Event Time Altitude Azimuth Distance (km) Brightness Sun altitude
Rises 23:07:19 0° 17° (NNE) 2,890 ? -15.9°
Reaches altitude 10° 23:09:33 10° 22° (NNE) 1,979 ? -16.1°
Maximum altitude 23:13:47 57° 101° (E) 721 ? -16.5°
Enters shadow 23:15:40 31° 167° (SSE) 1,087 ? -16.6°
